Showing default

GONETS D1 4, 24728

Orbit data source: Space-Track

GONETS D1 4, 24728 is a payload satellite owned by Gonets (CIS) in LEO that was launched on Fri, 14 Feb 1997 UTC via a TSIKLON-3 launch vehicle from the Plesetsk Missile And Space Complex (PKMTR). Payload-class satellites include a variety of spacecraft equipped with specific instruments for various scientific and technological missions. These include communications satellites like Starlink; space stations such as the ISS; scientific satellites like the Hubble; Earth observation satellites from companies like Planet Labs, Umbra, and HawkEye 360; GPS; miniature CubeSats for education and research; and military/defense satellites.

Loading next visibility...
Identifier
24728, 1997-006D
Orbit
LEO
Country
Flag of CISCIS
Related business
Manufacturer
NPO PM
Mission
Non-operational Civil Communications
Bus & Motor
STRELA-3, Unknown motor
Mass
225 kg wet, 225 kg dry
Launch date (UTC)
1997-02-14 (29 years ago)
Launch vehicle
TSIKLON-3
Launch site
Plesetsk Missile And Space Complex (PKMTR)
Object type
Payload
Rocket body
Debris
Shape & HBR
Cyl + 1 Ant, 3.5 m
Radar Cross Section
1.798 m², Medium (>0.1 m² and < 1m²)

Expand to show TLE details & history
Last TLE update: 7 hours ago

TLE from 7 hours ago
0 GONETS D1 4
1 24728U 97006D   26038.25144709  .00000034  00000-0  12865-3 0  9998
2 24728  82.6083 319.1667 0008646 110.9113 249.2906 12.63918297336793
Epoch: 2026-02-07T06:02Z
TLE epoch observation values (Epoch: 2026-02-07T06:02:05.028Z)
Latitude
0.00004°
Longitude
91.26811°
Altitude
1,411.932 km
Speed
7.153 km/s
True Right ascension
21h 16m 40s
True Declination
0° 00' 00"
Sunlit
Object was in daylight at epoch
Visualization orbit readout
Latitude
Unknown
Longitude
Unknown
Altitude
Unknown
Speed
Unknown
Apparent Right ascension
Unknown
Apparent Declination
Unknown
Sunlit
N/A
Visualization observer readout
Local Sidereal Time
15:38:45
Azimuth
Unknown
Elevation
Unknown
Doppler factor
Unknown
Orbital elements
Apogee altitude
1,410.859 km
Perigee altitude
1,397.402 km
Semi-major axis
7,782.268 km
Eccentricity
0.00086
Inclination
82.6083°
RAAN
319.1667°
Arg. of periapsis
110.9113°
True anomaly
249.19796°
Mean anomaly
249.2906°
Eccentric anomaly
249.24428°
Mean motion
3.16143 °/min
Orbital period
113.87 mins
BSTAR
0.00012865
Loading maneuver chart data...
Computing Atmospheric mass density...
Loading historical data...
Loading historical data...
Loading historical data...
Loading historical data...
Loading historical data...
Loading historical data...
Loading historical data...

Documentation

Showing up to 5 results
|